DW3846 Weather Reports


Display with metric or nautical units.
time (UTC)temp
F
wind
direction
speed
MPH
gust
MPH
rain 1hr
in
rain 24hr
in
rain mn
in
humidity
%
barometer
mb
20190627130610 78 322 3.0 5.0 0.00 0.00 0.00 55 1005.0
20190627120609 72 338 0.0 0.0 0.00 0.00 0.00 35 1005.0
20190627115609 71 355 0.0 0.0 0.00 0.00 0.00 36 1005.0
20190627114609 70 5 0.0 0.0 0.00 0.00 0.00 37 1005.0
20190627112610 69 5 0.0 0.0 0.00 0.00 0.00 36 1005.0
20190627111610 68 5 0.0 0.0 0.00 0.00 0.00 36 1005.0
20190627110609 68 5 0.0 0.0 0.00 0.00 0.00 36 1005.0
20190627105609 69 5 0.0 0.0 0.00 0.00 0.00 36 1005.0
20190627104609 69 5 0.0 0.0 0.00 0.00 0.00 36 1005.0
20190627103609 69 5 0.0 0.0 0.00 0.00 0.00 36 1005.0
20190627102608 69 5 0.0 0.0 0.00 0.00 0.00 35 1005.0
20190627101610 69 5 0.0 0.0 0.00 0.00 0.00 35 1005.0
20190627100609 70 5 0.0 0.0 0.00 0.00 0.00 35 1005.0
20190627094610 71 5 0.0 0.0 0.00 0.00 0.00 35 1005.0
20190627093609 71 5 0.0 0.0 0.00 0.00 0.00 34 1005.0
20190627092609 71 5 0.0 0.0 0.00 0.00 0.00 34 1005.0
20190627091609 72 5 0.0 0.0 0.00 0.00 0.00 34 1005.0
20190627090611 72 5 0.0 0.0 0.00 0.00 0.00 34 1005.0
20190627085609 72 5 0.0 0.0 0.00 0.00 0.00 34 1005.0
20190627084609 72 5 0.0 0.0 0.00 0.00 0.00 34 1005.0
20190627083610 73 5 0.0 0.0 0.00 0.00 0.00 34 1005.0
20190627081611 73 5 0.0 0.0 0.00 0.00 0.00 34 1005.0
20190627080609 73 5 0.0 0.0 0.00 0.00 0.00 33 1005.0
20190627074608 73 5 0.0 0.0 0.00 0.00 0.00 33 1005.0
20190627073609 73 5 0.0 0.0 0.00 0.00 0.00 33 1005.0
20190627072608 73 5 0.0 0.0 0.00 0.00 0.00 34 1005.0
20190627070609 74 5 0.0 0.0 0.00 0.00 0.00 34 1005.0
20190627065610 74 5 0.0 0.0 0.00 0.00 0.00 35 1005.0
20190627064610 75 5 0.0 0.0 0.00 0.00 0.00 37 1005.0
20190627063610 75 5 0.0 0.0 0.00 0.00 0.00 40 1005.0
20190627062609 76 5 0.0 0.0 0.00 0.00 0.00 42 1005.0
20190627053610 79 5 0.0 0.0 0.00 0.00 0.00 52 1005.0
20190627052609 79 3 0.0 0.0 0.00 0.00 0.00 53 1005.0
20190627051610 80 16 0.0 3.0 0.00 0.00 0.00 54 1005.0
20190627045609 80 12 1.0 3.0 0.00 0.00 0.00 55 1005.0
20190627044610 80 18 2.0 3.0 0.00 0.00 0.00 56 1005.0
20190627043610 81 13 1.0 6.0 0.00 0.00 0.00 56 1005.0
20190627041609 81 20 3.0 7.0 0.00 0.00 0.00 56 1005.0
20190627040610 81 13 2.0 7.0 0.00 0.00 0.00 56 1005.0
20190627035609 80 16 5.0 7.0 0.00 0.00 0.00 56 1005.0
20190627033610 80 359 1.0 3.0 0.00 0.00 0.00 56 1005.0
20190627032609 79 333 0.0 0.0 0.00 0.00 0.00 55 1005.0
20190627031610 79 333 0.0 0.0 0.00 0.00 0.00 54 1005.0
20190627024609 79 333 0.0 0.0 0.00 0.00 0.00 53 1005.0
20190627023609 79 333 0.0 0.0 0.00 0.00 0.00 53 1005.0
20190627022610 80 333 0.0 0.0 0.00 0.00 0.00 53 1005.0
20190627021610 80 333 0.0 0.0 0.00 0.00 0.00 56 1005.0
20190627020609 81 333 0.0 0.0 0.00 0.00 0.00 57 1005.0
20190627015610 81 333 0.0 0.0 0.00 0.00 0.00 58 1005.0
20190627014610 83 333 0.0 0.0 0.00 0.00 0.00 58 1005.0
20190627012609 83 333 0.0 0.0 0.00 0.00 0.00 58 1005.0
20190627005610 85 333 0.0 0.0 0.00 0.00 0.00 58 1005.0
20190627003610 88 300 0.0 3.0 0.00 0.00 0.00 57 1005.0
20190626235609 90 318 2.0 5.0 0.00 0.00 0.00 52 1005.0
20190626234610 91 329 3.0 5.0 0.00 0.00 0.00 51 1005.0
20190626233610 92 296 2.0 3.0 0.00 0.00 0.00 49 1005.0
20190626232609 92 296 2.0 3.0 0.00 0.00 0.00 46 1005.0
20190626231610 92 320 2.0 3.0 0.00 0.00 0.00 47 1005.0
20190626230613 93 317 2.0 5.0 0.00 0.00 0.00 45 1005.0
20190626225610 93 332 3.0 6.0 0.00 0.06 0.00 44 1005.0
20190626224610 93 322 4.0 8.0 0.00 0.11 0.00 44 1005.0
20190626222610 94 321 1.0 6.0 0.00 0.11 0.00 40 1005.0
20190626220610 94 276 3.0 7.0 0.00 0.11 0.00 42 1005.0
20190626214609 94 18 2.0 14.0 0.00 0.11 0.00 41 1005.0
20190626212610 94 146 1.0 5.0 0.00 0.11 0.00 45 1005.0
20190626211609 94 124 1.0 5.0 0.00 0.11 0.00 46 1005.0
20190626210609 94 10 2.0 5.0 0.00 0.11 0.00 43 1005.0
20190626205609 95 50 2.0 5.0 0.00 0.11 0.00 45 1005.0
20190626203609 95 70 3.0 6.0 0.00 0.11 0.00 44 1005.0
20190626201609 94 56 3.0 9.0 0.00 0.11 0.00 45 1005.0
20190626200609 94 352 1.0 6.0 0.00 0.11 0.00 42 1005.0
20190626195610 93 183 1.0 6.0 0.00 0.11 0.00 45 1005.0
20190626194610 93 31 2.0 5.0 0.00 0.11 0.00 48 1005.0
20190626193609 92 5 0.0 7.0 0.00 0.11 0.00 46 1005.0
20190626192610 92 82 0.0 6.0 0.00 0.11 0.00 48 1005.0
20190626191611 92 56 2.0 7.0 0.00 0.11 0.00 47 1005.0
20190626185610 91 131 1.0 3.0 0.00 0.11 0.00 50 1005.0
20190626184611 92 117 1.0 7.0 0.00 0.11 0.00 48 1005.0
20190626183610 92 64 0.0 6.0 0.00 0.11 0.00 48 1005.0
20190626182610 92 56 3.0 8.0 0.00 0.11 0.00 48 1005.0
20190626180610 92 357 4.0 8.0 0.00 0.11 0.00 46 1005.0
20190626175610 92 70 3.0 8.0 0.00 0.11 0.00 48 1005.0
20190626173610 92 81 3.0 10.0 0.00 0.11 0.00 49 1005.0
20190626172611 92 38 2.0 8.0 0.00 0.11 0.00 49 1005.0
20190626171611 92 66 3.0 10.0 0.00 0.11 0.00 49 1005.0
20190626165610 91 3 4.0 12.0 0.00 0.11 0.00 50 1005.0
20190626163610 90 82 5.0 12.0 0.00 0.11 0.00 51 1005.0
20190626162611 90 65 6.0 12.0 0.00 0.11 0.00 50 1005.0
20190626161611 90 39 3.0 12.0 0.00 0.11 0.00 53 1005.0
20190626160610 89 28 5.0 12.0 0.00 0.11 0.00 53 1005.0
20190626155610 89 66 5.0 13.0 0.00 0.11 0.00 54 1005.0
20190626154619 88 49 5.0 9.0 0.00 0.11 0.00 56 1005.0
20190626153610 88 55 3.0 10.0 0.00 0.11 0.00 56 1005.0
20190626152609 87 42 3.0 8.0 0.00 0.11 0.00 57 1005.0
20190626151611 87 42 3.0 10.0 0.00 0.11 0.00 56 1005.0
20190626144609 85 41 2.0 3.0 0.00 0.11 0.00 56 1005.0
20190626143610 85 22 2.0 5.0 0.00 0.11 0.00 57 1005.0
20190626140610 84 32 3.0 9.0 0.00 0.11 0.00 57 1005.0
20190626131609 80 350 3.0 6.0 0.00 0.11 0.00 54 1005.0